Regional Weather Roundup
Issued by NWS Pendleton, OR

Home | Current Version | Previous Version | Text Only | Print | Product List | Glossary On
Versions: 1 2 3 4 5 6 7 8 9 10 11 12 13 14 15 16 17 18 19 20 21 22 23 24 25 26 27 28 29 30 31 32 33 34 35 36 37 38 39 40 41 42 43 44 45 46 47 48 49 50
441
ASUS46 KPDT 260325
RWRPDT
PENDLETON REGIONAL WEATHER ROUNDUP
NATIONAL WEATHER SERVICE PENDLETON OREGON
800 PM PDT WED MAY 25 2016

NOTE: FAIR INDICATES FEW OR NO CLOUDS BELOW 12,000 FEET WITH NO
SIGNIFICANT WEATHER AND/OR OBSTRUCTIONS TO VISIBILITY.

# INDICATES UNOFFICIAL STATION AND DATA

WAZ520-260410-
EAST SLOPES OF WASHINGTON CASCADES

CITY            SKY/WX      TMP DP  RH  WIND    PRES   REMARKS
#CLE ELUM HS    N/A         55  43  64  N7      30.03R
#CLE ELUM 2NW   N/A         53  42  66  SW3     N/A
#GLENWOOD       N/A         58  46  64  S2      30.03R
#MANASTASH CYN  N/A         54  39  57  CALM    30.02R
#NELSON 3SW     N/A         52  41  66  S1      30.24R
#NILE           N/A         57  40  53  SW3     29.33R
#TEANAWAY 4NE   N/A         56  46  69  W3      N/A
#TROUT LAKE 1NE N/A         56  45  66  W9      30.07R
#TROUT LAKE 1E  N/A         57  45  64  CALM    30.05F
$$

WAZ521-260410-
SIMCOE HIGHLANDS

CITY            SKY/WX      TMP DP  RH  WIND    PRES   REMARKS
#CENTERVILLE 1SWN/A         56  45  66  W18     29.99
#GOLDENDALE 1NE N/A         59  32  36  SW3     N/A
#GOLDENDALE 4W  N/A         60  51  72  W15     30.09R
#GOODNOE HILLS  N/A         62  46  56  W21     29.93R
#LYLE 6NE       N/A         56  48  74  SW10    30.04R
$$

WAZ026-260410-
KITTITAS VALLEY

CITY            SKY/WX      TMP DP  RH  WIND    PRES   REMARKS
ELLENSBURG AP   CLEAR       62  41  46  W23G35  30.02R
#ELLENSBURG CWU N/A         60  42  51  W13     29.93R
#ELLENSBURG 3NE N/A         59  44  57  W12G24  30.02R
#ELLENSBURG     N/A         62  43  50  W8      N/A
#ELLENSBURG 1E  N/A         60  N/A N/A NW2     N/A
#ELLENSBURG 13S N/A         65  40  40  SE9     N/A
#KITTITAS 4N    N/A         58  42  55  W20     30.04R
#KITTITAS 3S    N/A         59  43  55  W5      29.97R
#THORP 6N       N/A         54  43  66  NW29G37 30.01R
$$

WAZ027-260410-
YAKIMA VALLEY

CITY            SKY/WX      TMP DP  RH  WIND    PRES   REMARKS
SUNNYSIDE AP    PTCLDY      67  43  42  W12     29.96R
YAKIMA AIRPORT  CLEAR       69  42  37  NW14    30.00R
YAKIMA-VAGABOND MOCLEAR     65  39  38  N10     29.99R
#DONALD 2NE     N/A         66   9  10  W5      28.82R
#GRANDVIEW      N/A         70  41  35  W10     29.95R
#MABTON         N/A         75  51  43  W7      29.93R
#NACHES 2SW     N/A         60  42  51  W15G26  29.99S
#TERRACE HTS    N/A         65  41  41  N6      29.93R
#TOPPENISH      N/A         68  45  44  CALM    29.87R
#WEST VALLEY    N/A         65  44  46  NW13G24 29.94R
#W YAKIMA       N/A         63  42  46  N5      29.97R
#WHITE SWAN 5E  N/A         67  47  49  SW14G25 29.95R
#WILEY CITY 3W  N/A         63  38  39  CALM    29.97R
$$

WAZ028-260410-
LOWER COLUMBIA BASIN...WASHINGTON

CITY            SKY/WX      TMP DP  RH  WIND    PRES   REMARKS
PASCO           PTCLDY      73  46  38  SW15    29.93S
PROSSER AWOS    N/A         70  45  41  W13     29.98R
RICHLAND AWOS   MOCLDY      74  47  38  SW13    29.94R
#BENTON CITY    N/A         72  48  43  SW9     29.82R
#CONNELL 5N     N/A         69  46  44  SW1     29.91S
#CONNELL 5NW    N/A         66  49  54  S3      29.88R
#ELTOPIA 6NW    N/A         68  51  55  CALM    28.92R
#KAHLOTUS       N/A         71  42  35  W10     29.91S
#KENNEWICK 3S   N/A         69  50  51  N8      29.92R
#PATERSON       N/A         67  51  56  NW13    29.93R
#SAGEMOOR 2W    N/A         66  53  63  CALM    29.78R
#TOUCHET 2S     N/A         69  48  47  SW10    29.91S
#WEST PASCO     N/A         73  50  44  W5      29.98R
$$

WAZ029-260410-
FOOTHILLS OF THE BLUES...WASHINGTON

CITY            SKY/WX      TMP DP  RH  WIND    PRES   REMARKS
WALLA WALLA AP  CLEAR       69  46  44  W9      29.98R
#CLYDE 6NW      N/A         68  45  44  SW6     29.92S
#DAYTON SCHOOL  N/A         67  41  39  E3      29.99S
#LOWDEN 2SE     N/A         70  49  47  W2      29.93R
#PLEASANT VIEW 1N/A         64  44  48  S7      29.96S
#PRESCOTT       N/A         70  49  47  CALM    29.93R
#SUDBURY        N/A         62  N/A N/A CALM    N/A
#WHITMAN COLLEGEN/A         71  48  44  SW7     30.00R
#WAITSBURG 8N   N/A         60  15  17  CALM    29.82R
#WALLA WALLA 5E N/A         72  52  49  CALM    N/A
#WALLA WALLA U  N/A         74  49  41  CALM    29.93S
#WHITMAN MISSIONN/A         70  50  49  SW1     29.96R
$$

WAZ030-260410-
BLUE MOUNTAINS...WASHINGTON

CITY            SKY/WX      TMP DP  RH  WIND    PRES   REMARKS
#DIXIE 5SE      N/A         64  45  50  SW6     29.97S
$$

ORZ009-041-WAZ024-260410-
COLUMBIA RIVER GORGE

CITY            SKY/WX      TMP DP  RH  WIND    PRES   REMARKS
HOOD RIVER AP   PTCLDY      61  46  58  W5      30.12R
THE DALLES AP   CLEAR       65  45  48  W18     30.07R
#ARLINGTON AIRPON/A         62  47  58  W22     29.99R
#CELILO DOT     N/A         66  44  45  SW12    N/A
#LYLE           N/A         63  51  65  NW17G28 30.09R
#MARYHILL 2W    N/A         61  47  60  NW6     N/A
#MOSIER 1S      N/A         60  35  39  NW8     30.06S
#MURDOCK        N/A         64  50  60  NW15G30 30.03R
#RUFUS DOT      N/A         66  46  48  W21     N/A
#SMITHIVILLE    N/A         64  49  58  W18     29.97F

$$

ORZ510-260410-
NORTH CENTRAL OREGON

CITY            SKY/WX      TMP DP  RH  WIND    PRES   REMARKS
#ANTELOPE       N/A         56  42  59  W3      29.92R
#CHENOWITH 1W   N/A         57  45  64  NW32    N/A
#COW CYN RST AREN/A         55  N/A N/A W10     N/A
#DUFUR 9E       N/A         55  43  64  W22G31  30.11R
#GRASS VALLEY   N/A         54  42  64  W1      N/A
#GRASS VALLEY 1SN/A         55  41  59  W10     30.03R
#KENT DOT       N/A         56  31  38  N18     N/A
#MAUPIN SCHOOL  N/A         62  44  52  W6      30.11R
#MORO SCHOOL    N/A         58  47  67  W15G26  30.07R
#SHANIKO 5WSW   N/A         54  32  43  W15     N/A
#SHANIKO 4NW    N/A         52  -54  1  W12     30.10S
#TYGH VALLEY 2NEN/A         62  42  48  N7      30.05R
#WAPANITIA AIRPON/A         58  42  55  W8      30.07R
#WASCO DOT      N/A         60  42  51  W16     N/A
#WASCO 5NE      N/A         57  45  64  W10G24  30.01R
$$

ORZ511-260410-
CENTRAL OREGON

CITY            SKY/WX      TMP DP  RH  WIND    PRES   REMARKS
BEND AIRPORT    CLEAR       57  41  55  NW8     30.11R
MADRAS AIRPORT  CLEAR       59  45  60  N17G26  30.13R
PRINEVILLE AP   CLEAR       55  41  59  N14     30.10R
REDMOND AIRPORT CLEAR       59  41  51  NW10    30.10R
#ASHWOOD SCHOOL N/A         57  41  55  CALM    30.06R
#BEND 1SW       N/A         55  42  61  NE2     N/A
#BEND-AWBREY    N/A         57  42  57  N3      30.04R
#BEND-KIM LN    N/A         58  43  57  N1      30.08R
#CULVER         N/A         56  43  62  NE3     30.02R
#CULVER 8W      N/A         57  41  55  CALM    30.09R
#LAKE BILLY CHINN/A         60  N/A N/A SW5     30.16R
#MADRAS 4S      N/A         55  13  19  N8      30.18R
#POWELL BUTTE 3EN/A         61  43  51  N10     N/A
#POWELL BUTTE   N/A         55  42  61  CALM    29.98R
#PRINEVILLE 3N  N/A         55  43  64  N7      30.03R
#WARM SPRINGS   N/A         59  43  55  CALM    30.07R

$$


ORZ509-260410-
EAST SLOPES OF OREGON CASCADES

CITY            SKY/WX      TMP DP  RH  WIND    PRES   REMARKS
SISTERS AWOS    N/A         55  43  64  W13G26  30.09R
#BLUE BOX PASS  N/A         45  N/A N/A NW5     N/A
#CAMP SHERMAN   N/A         53  39  59  CALM    30.16R
#LA PINE DOT    N/A         54  31  41  W10     N/A
#LA PINE 4NW    N/A         52  39  61  CALM    30.09R
#LAVA BUTTE DOT N/A         55  32  41  CALM    N/A
#SISTERS AIRPOR N/A         54  47  77  N8      30.17S
#SISTERS ODOT   N/A         55  N/A N/A S8      N/A
#SISTERS 3N     N/A         53  37  54  NW3     30.08S
#SUNRIVER       N/A         56  42  59  CALM    30.06R
#SUTTLE LK DOT  N/A         45  39  79  W6      N/A
#TUMALO 3W      N/A         55  42  61  N7      29.93R
#WANOGA BUTTE D N/A         49  36  61  S2      N/A

$$

ORZ044-260410-
LOWER COLUMBIA BASIN...OREGON

CITY            SKY/WX      TMP DP  RH  WIND    PRES   REMARKS
HERMISTON       CLEAR       68  47  47  SW16    29.97R
#BOARDMAN SCHOOLN/A         67  49  52  SW15G24 29.96R
#ECHO 8SW       N/A         65  47  52  SW10    29.99R
#I-84 EX 198 DOTN/A         67  43  42  E18     N/A
#UMATILLA SCHOOLN/A         67  55  65  S6      30.01R
#UMATILLA       N/A         68  47  47  W12     29.88R
$$

ORZ507-260410-
NORTHERN FOOTHILLS OF THE BLUES

CITY            SKY/WX      TMP DP  RH  WIND    PRES   REMARKS
PENDLETON AIRPT CLEAR       66  42  42  W18     30.00R
#ADAMS 3WNW     N/A         65  47  52  W7      29.97R
#ATHENA         N/A         66  47  50  CALM    29.99R
#CAYUSE         N/A         66  47  50  W10     29.96R
#HELIX SCHOOL   N/A         65  46  50  W5      29.97R
#HELIX 3N       N/A         61  46  58  SW9     29.98R
#HELIX 6SW      N/A         64  47  54  CALM    30.00
#HOLDMAN 5SE    N/A         63  46  54  W8      30.00R
#HOLDMAN 6E     N/A         64  47  54  E7      29.78R
#M-F GROVE ELEM N/A         70  43  38  W1      29.97R
#M-FREEWATER 5SEN/A         69  48  47  CALM    29.98R
#PENDLETON DNTN N/A         70  40  34  W1      30.01R
#PDT AQUATIC CTRN/A         67  38  34  W7      30.05R
#PDT SUNRIDGE   N/A         67  45  45  W7      30.02R
#PENDLETON 7NW  N/A         66  47  50  W3      32.27S
#PILOT ROCK 1S  N/A         66  42  42  W1      30.02R
#PILOT ROCK     N/A         65  43  45  W3      30.05R
#TUTUILLA       N/A         64  46  52  CALM    30.00R
#UMAPINE 2E     N/A         70  49  47  SW3     29.94R
#WESTON SCHOOL  N/A         65  43  45  N5      29.88R

$$

ORZ508-260410-
SOUTHERN FOOTHILLS OF THE BLUES

CITY            SKY/WX      TMP DP  RH  WIND    PRES   REMARKS
LEXINGTON       CLEAR       61  43  51  W16     30.08R
#AJAX           N/A         56  36  47  S14     27.82R
#CONDON SCHOOL  N/A         57  44  62  NW13    30.02R
#CONDON 5W      N/A         52  39  61  NW15G24 30.06R
#FOSSIL SCHOOL  N/A         60  44  55  NW6     30.02R
#HEPPNER EOC    N/A         59  43  55  W9      29.95R
#HEPPNER 4NE    N/A         55  43  64  W12     30.01R
#LEXINGTON 2SE  N/A         63  44  50  W13     30.00R
#OLEX 4N        N/A         60  45  58  W20G28  30.01R
#RUGGS 5NE      N/A         57  41  55  W13     30.27S
#RUGGS 2SW      N/A         57  43  59  W7      30.03R

$$

ORZ502-503-260410-
BLUE MOUNTAINS

CITY            SKY/WX      TMP DP  RH  WIND    PRES   REMARKS
MEACHAM         PTCLDY      56  40  55  CALM    30.07R
#BATTLE MTN DOT N/A         54  45  71  N1      N/A
#CUTSFORTH PARK N/A         50  44  80  CALM    29.86R
#GREENHORN 9SW  N/A         60  41  49  W1      26.24S
#HARDMAN 10S    N/A         61  34  36  N5      30.22S
#HEPPNER 15SE   N/A         50  44  80  W2      25.61R
#LADD CYN SMT   N/A         57  37  47  NW2     N/A
#LADD CREEK ODOTN/A         58  42  55  CALM    N/A
#LONG CREEK HS  N/A         60  46  60  CALM    N/A
#N POWDER DOT   N/A         61  41  48  N10     N/A
#PIKES PEAK     N/A         59  42  53  SW1     27.99S
#TOLLGATE       N/A         51  42  71  CALM    29.95S
#TROY SCHOOL    N/A         65  53  65  CALM    29.83S
#UKIAH          N/A         58  46  64  N7      29.93R
#WESTON 4E      N/A         59  44  57  SW5     29.96R
$$

ORZ505-260410-
JOHN DAY BASIN

CITY            SKY/WX      TMP DP  RH  WIND    PRES   REMARKS
JOHN DAY        N/A         N/A N/A N/A MISG    N/A
#DAYVILLE SCHOOLN/A         68  34  28  CALM    29.98S
#MITCHELL       N/A         63  46  54  CALM    30.20R
#MITCHELL 8NW   N/A         61  41  48  N2      30.20S
#MONUMENT HS    N/A         67  42  40  N8      29.94S
#MT. VERNON 5SE N/A         61  39  44  CALM    30.01S
#SPRAY SCHOOL   N/A         67  N/A N/A N5      N/A
#WINLOCK        N/A         58  43  57  CALM    30.01R
$$

ORZ506-260410-
OCHOCO AND JOHN DAY HIGHLANDS

CITY            SKY/WX      TMP DP  RH  WIND    PRES   REMARKS
#BUCK CREEK DOT N/A         61  38  42  NW8     N/A
#HORSE RIDGE DO N/A         58  39  49  NW12    N/A
#KEYES SMT DOT  N/A         58  38  47  SW1     N/A
#PAULINA SCHOOL N/A         62  35  36  NW2     N/A
#PINE MTN OBS   N/A         48  40  74  N5      N/A
#PRAIRIE CITY   N/A         60  48  64  CALM    30.18S
#SENECA         N/A         58  N/A N/A N2      N/A
#SENECA 9NW     N/A         56  39  53  CALM    29.99S
$$

ORZ049-260410-
GRANDE RONDE VALLEY

CITY            SKY/WX      TMP DP  RH  WIND    PRES   REMARKS
LA GRANDE       PTCLDY      61  39  44  N8      30.02R
#COVE           N/A         62  50  65  E1      30.05R
#COVE SCHOOL    N/A         61  50  67  CALM    30.04R
#COVE 6NW       N/A         60  46  60  N1      29.90R
#ELGIN 3N       N/A         63  41  44  W2      30.00R
#ELGIN 1E       N/A         67  49  52  CALM    N/A
#IMBLER SCHOOL  N/A         63  45  52  N3      29.98S
#ISLAND CITY 4N N/A         58  49  72  CALM    30.19R
#LADD CYN DOT   N/A         61  43  51  W3      N/A
#UNION 1S       N/A         62  47  58  CALM    29.88R
$$

ORZ050-260410-
WALLOWA COUNTY

CITY            SKY/WX      TMP DP  RH  WIND    PRES   REMARKS
JOSEPH AIRPORT  PTCLDY      55  43  64  CALM    30.08S
#ENTERPRISE AP  N/A         49  29  46  CALM    30.00R
#ENTERPRISE HS  N/A         58  45  62  CALM    30.06R
#IMNAHA SCHOOL  N/A         63  50  62  CALM    30.00R
#IMNAHA 10S     N/A         60  49  67  CALM    30.02R
#JOSEPH 3W      N/A         48  46  93  SW2     29.92R
#LOSTINE        N/A         57  49  75  CALM    29.82S
#LOSTINE 3SE    N/A         58  46  64  W2      30.05R
#MT HOWARD 8000 N/A         38  37  96  NW1     30.16S
#PROMISE 1S     N/A         56  47  72  CALM    30.09F
#WALLOWA SCHOOL N/A         60  49  67  CALM    30.00R



$$



USA.gov is the U.S. government's official web portal to all federal, state and local government web resources and services.